Weather Roundup
Issued by NWS Corpus Christi, TX

Home | Current Version | Previous Version | Text Only | Print | Product List | Glossary On
Versions: 1 2 3 4 5 6 7 8 9 10 11 12 13 14 15 16 17 18 19 20 21 22 23 24 25 26 27 28 29 30 31 32 33 34 35 36 37 38 39 40 41 42 43 44 45 46 47 48 49 50
000
ASUS44 KCRP 010510
HRRCRP

SOUTH TEXAS REGIONAL WEATHER ROUNDUP
NATIONAL WEATHER SERVICE CORPUS CHRISTI TX
1200 AM CDT THU SEP 01 2016


TXZ229>244-010600-
...CORPUS CHRISTI AREA OBSERVATIONS...

CITY           SKY/WX    TMP DP  RH WIND       PRES   REMARKS
CORPUS CHRISTI CLOUDY    79  75  87 N5        29.92S
NAS CORPUS CHR CLOUDY    82  76  81 N5        29.91S
ROCKPORT       CLEAR     77  74  90 N6        29.91F
KINGSVILLE NAS CLOUDY    79  76  90 N3        29.92S
ALICE          CLOUDY    79  74  84 N3        29.93S
FALFURRIAS     CLOUDY    80  75  84 CALM      29.92F
$$

...VICTORIA AREA OBSERVATIONS...

CITY           SKY/WX    TMP DP  RH WIND       PRES   REMARKS
VICTORIA       CLEAR     76  74  93 W6        29.94R
BEEVILLE       MOCLDY    78  78 100 N5        29.94S
PLEASANTON     CLOUDY    78  75  89 CALM      29.97R
SAN ANTONIO    CLOUDY    77  69  76 NW6       29.99S
$$

...LAREDO AREA OBSERVATIONS...

CITY           SKY/WX    TMP DP  RH WIND       PRES   REMARKS
LAREDO         CLOUDY    79  72  79 CALM      29.97S
COTULLA        CLOUDY    81  71  71 NW3       29.97R
DEL RIO        CLOUDY    80  74  81 CALM      29.99S
MCALLEN        CLEAR     83  73  72 CALM      29.93F
HEBBRONVILLE   CLOUDY    78  73  84 CALM      29.98S
$$

...OTHER TEXAS OBSERVATIONS...

CITY           SKY/WX    TMP DP  RH WIND       PRES   REMARKS
BROWNSVILLE    CLEAR     80  77  90 NW3       29.91S
HOUSTON        PTCLDY    81  74  79 CALM      29.92S
COL. STATION   CLEAR     83  73  72 N6        29.95S
AUSTIN         PTCLDY    76  74  93 S3        29.97S
WACO           CLEAR     76  73  91 CALM      29.98S
FORT WORTH     MOCLDY    84  72  67 N9        29.99R
WICHITA FALLS  CLOUDY    74  69  85 NE6       30.05S
LUBBOCK        DRIZZLE   69  66  90 E7        30.20R
EL PASO        MOCLDY    74  64  71 E8        30.16R
$$

...MARINE OBSERVATIONS...

STATION/POSITION TIME  SKY/WX   TEMP    WIND        PRES    VSBY  WAVE   SWELL
                                AIR SEA DIR/SP/G                  HT/PER HT/PER
                 (UTC)          (F)     (DEG/KT/KT) (MB)    (MI)  (FT/S) (FT/S)
PORT ARANSAS     0500            81 85   10/  6/  7 1013.1S
BUOY 90 E PORT A 0450            85 86  360/  8/ 10 1012.4R         6/ 8   7/ 8
BUOY 45 SE BAFFI 0450            85 86   30/  6/  8 1012.3S         3/ 8   3/ 8
BUOY 200 E PT IS 0450            86 87   40/ 14/ 16 1009.5S         5/ 8   3/ 8
BUOY 15 E GALVES 0450            86 86  340/  8/ 12 1012.3F         2/ 8   2/ 8
$$




USA.gov is the U.S. government's official web portal to all federal, state and local government web resources and services.